User: anonymous   Login
Location: Unspecified
(0.0000°N, 0.0000°E)
Time: 03:20:12
(UTC+00:00)
Language:

STARLINK-30858 - Orbit

View from above orbital plane
View from above orbital plane
View from above satellite
View from above satellite

Ground track
Ground track

The orbit is defined by the following mean orbital elements,

1 58358U          26145.40641304 +.00000000 +00000-0 +11767-3 0 00007
2 58358  43.0010 277.0632 0000979 265.4486  94.6254 15.27564950    00
Epoch (UTC): 25 May 2026 09:45:14
Eccentricity: 0.0000979
inclination: 43.0010°
perigee height: 482 km
apogee height: 484 km
right ascension of ascending node: 277.0632°
argument of perigee: 265.4486°
revolutions per day: 15.27564950
mean anomaly at epoch: 94.6254°

The dashed part of the orbit path shows where the satellite is in the earth's shadow,  

DLR